CW8553 Weather Reports


Display with metric or nautical units.
time (UTC)temp
F
wind
direction
speed
MPH
gust
MPH
rain 1hr
in
rain 24hr
in
rain mn
in
humidity
%
barometer
mb
20260903173044 60 0 0.0 2.0 0.00 0.28 0.09 80 1009.4
20260903171549 61 0 0.0 3.0 0.00 0.28 0.09 80 1009.2
20260903170047 58 88 0.0 4.0 0.00 0.28 0.09 87 1009.2
20260903164547 57 0 0.0 7.0 0.00 0.28 0.09 88 1009.2
20260903163047 57 228 0.0 3.0 0.00 0.28 0.09 88 1009.3
20260903161541 56 150 0.0 2.0 0.00 0.28 0.09 88 1009.2
20260903160048 57 102 0.0 2.0 0.00 0.28 0.09 88 1009.2
20260903154547 57 0 0.0 2.0 0.00 0.28 0.09 88 1009.2
20260903153045 56 77 0.0 2.0 0.00 0.28 0.09 91 1009.1
20260903151542 54 98 0.0 3.0 0.01 0.28 0.09 94 1009.1
20260903150041 53 0 0.0 2.0 0.01 0.28 0.09 95 1009.1
20260903144551 53 56 0.0 2.0 0.01 0.28 0.09 94 1008.9
20260903143045 53 0 0.0 1.0 0.02 0.28 0.09 94 1008.8
20260903141544 53 0 0.0 3.0 0.01 0.27 0.08 94 1008.7
20260903140051 52 329 0.0 2.0 0.02 0.27 0.08 94 1008.8
20260903134546 52 0 0.0 1.0 0.03 0.27 0.08 93 1008.7
20260903133046 52 0 0.0 1.0 0.03 0.26 0.07 93 1008.6
20260903131546 53 0 0.0 2.0 0.05 0.26 0.07 92 1008.6
20260903130111 53 51 0.0 2.0 0.05 0.25 0.06 92 1008.4
20260903124545 53 0 0.0 2.0 0.03 0.23 0.04 91 1008.3
20260903123045 53 106 0.0 2.0 0.03 0.23 0.04 90 1008.3
20260903121547 53 0 0.0 0.0 0.01 0.21 0.02 89 1008.4
20260903120045 53 0 0.0 0.0 0.00 0.20 0.01 88 1008.3
20260903114552 53 0 0.0 2.0 0.00 0.20 0.01 87 1007.9
20260903113044 53 0 0.0 2.0 0.00 0.20 0.01 87 1008.0
20260903111542 54 0 0.0 5.0 0.00 0.20 0.01 87 1007.9
20260903110111 54 92 1.0 3.0 0.00 0.20 0.01 88 1007.9
20260903104549 53 121 1.0 5.0 0.00 0.20 0.01 88 1007.8
20260903103046 53 104 0.0 2.0 0.00 0.20 0.01 89 1007.9
20260903101543 54 0 0.0 3.0 0.01 0.20 0.01 89 1007.9
20260903100048 54 0 0.0 1.0 0.01 0.20 0.01 89 1007.9
20260903094553 54 0 0.0 1.0 0.01 0.20 0.01 90 1007.8
20260903093043 54 0 0.0 1.0 0.01 0.20 0.01 89 1007.8
20260903091543 54 0 0.0 1.0 0.00 0.19 0.00 89 1007.8
20260903090048 54 0 0.0 3.0 0.00 0.19 0.00 89 1007.7
20260903084548 54 0 0.0 2.0 0.00 0.19 0.00 90 1007.7
20260903083046 54 0 1.0 2.0 0.00 0.19 0.00 90 1007.7
20260903081545 54 92 1.0 3.0 0.00 0.19 0.00 91 1007.5
20260903080049 54 0 0.0 2.0 0.00 0.19 0.00 91 1007.6
20260903074552 54 105 0.0 2.0 0.00 0.19 0.00 92 1007.5
20260903073047 53 113 0.0 2.0 0.00 0.19 0.00 93 1007.5
20260903071550 53 0 0.0 0.0 0.00 0.19 0.00 92 1007.4
20260903070048 53 0 0.0 0.0 0.00 0.19 0.00 92 1007.3
20260903064546 53 0 0.0 0.0 0.00 0.20 0.19 92 1007.3
20260903063044 53 0 0.0 2.0 0.00 0.20 0.19 92 1007.2
20260903061553 54 0 0.0 2.0 0.00 0.20 0.19 92 1007.2
20260903060047 54 0 0.0 0.0 0.00 0.20 0.19 92 1007.3
20260903054549 54 0 0.0 1.0 0.00 0.20 0.19 92 1007.3
20260903053102 54 0 0.0 0.0 0.00 0.20 0.19 93 1007.3
20260903051543 55 0 0.0 0.0 0.00 0.20 0.19 92 1007.2
20260903050049 55 0 0.0 1.0 0.00 0.20 0.19 92 1007.2
20260903044553 55 0 0.0 1.0 0.00 0.20 0.19 92 1007.2
20260903043042 55 0 0.0 1.0 0.00 0.20 0.19 92 1007.2
20260903041549 56 0 0.0 1.0 0.00 0.20 0.19 91 1007.0
20260903040046 56 0 0.0 2.0 0.00 0.20 0.19 91 1006.9
20260903034544 56 0 0.0 3.0 0.00 0.20 0.19 91 1006.6
20260903033043 56 0 0.0 3.0 0.00 0.20 0.19 91 1006.4
20260903031546 56 0 0.0 1.0 0.00 0.20 0.19 92 1006.3
20260903030046 56 0 0.0 0.0 0.00 0.20 0.19 92 1006.1
20260903024546 56 0 0.0 1.0 0.00 0.20 0.19 91 1005.9
20260903023053 56 0 0.0 2.0 0.00 0.20 0.19 91 1005.9
20260903021600 57 0 0.0 1.0 0.00 0.20 0.19 90 1005.7
20260903020046 57 0 0.0 2.0 0.01 0.20 0.19 90 1005.6
20260903014547 57 57 0.0 3.0 0.01 0.20 0.19 91 1005.6
20260903013048 58 284 0.0 4.0 0.01 0.20 0.19 92 1005.4
20260903011547 58 219 0.0 10.0 0.04 0.20 0.19 93 1005.4
20260903010053 58 0 0.0 4.0 0.04 0.19 0.18 94 1005.1
20260903004555 59 0 0.0 3.0 0.04 0.19 0.18 94 1004.9
20260903003043 59 34 0.0 2.0 0.04 0.19 0.18 94 1004.8
20260903001546 59 0 0.0 3.0 0.01 0.16 0.15 94 1004.9
20260903000048 59 0 0.0 1.0 0.01 0.15 0.14 94 1004.5
20260902234546 59 0 0.0 2.0 0.03 0.15 0.14 94 1004.4
20260902233042 59 152 0.0 2.0 0.05 0.15 0.14 93 1004.2
20260902231549 59 0 0.0 2.0 0.06 0.15 0.14 93 1004.2
20260902230047 58 77 0.0 2.0 0.06 0.14 0.13 92 1004.5
20260902224546 58 0 0.0 2.0 0.05 0.12 0.11 92 1004.6
20260902223043 59 0 0.0 1.0 0.05 0.10 0.09 91 1004.5
20260902221543 59 0 0.0 1.0 0.05 0.09 0.08 90 1004.7
20260902220053 59 0 0.0 2.0 0.06 0.08 0.07 90 1004.5
20260902214547 59 233 0.0 1.0 0.05 0.07 0.06 88 1004.6
20260902213042 59 0 0.0 1.0 0.04 0.05 0.04 86 1004.6
20260902211602 60 0 0.0 3.0 0.02 0.03 0.02 84 1004.7
20260902210052 60 229 0.0 5.0 0.01 0.02 0.01 82 1004.8
20260902204547 62 242 1.0 3.0 0.01 0.02 0.01 79 1004.7
20260902203043 63 259 1.0 5.0 0.00 0.01 0.00 77 1004.6
20260902201549 63 0 0.0 6.0 0.00 0.01 0.00 76 1004.7
20260902200047 63 267 2.0 8.0 0.00 0.01 0.00 76 1004.8
20260902194545 62 265 0.0 9.0 0.00 0.01 0.00 82 1004.9
20260902193043 62 220 1.0 8.0 0.00 0.01 0.00 79 1005.2
20260902191549 65 241 1.0 9.0 0.00 0.01 0.00 71 1005.2
20260902190045 68 235 0.0 4.0 0.00 0.01 0.00 64 1005.2
20260902184546 68 350 0.0 7.0 0.00 0.01 0.00 62 1005.0
20260902183050 69 113 1.0 5.0 0.00 0.01 0.00 63 1005.0
20260902181543 65 141 0.0 3.0 0.00 0.01 0.00 71 1005.3
20260902180057 64 0 0.0 2.0 0.00 0.01 0.00 74 1005.4
20260902174545 63 0 0.0 4.0 0.00 0.01 0.00 75 1005.6